Location: El Frío
(10.0713°N, 67.9111°W)
Time: 08:56:57
(UTC+00:00)

GPS 2-12 Rocket1 - Pass Details

Date: 11 December 2025
Orbit: 561 x 615 km, 20.0° (Epoch: 15 January)

Event Time Altitude Azimuth Distance (km) Brightness Sun altitude
Rises 23:31:19 0° 232° (SW) 2,738 7.8 -19.0°
Reaches altitude 10° 23:33:47 10° 222° (SW) 1,849 6.4 -19.6°
Maximum altitude 23:37:38 32° 158° (SSE) 987 4.0 -20.5°
Enters shadow 23:38:27 29° 136° (SE) 1,042 4.0 -20.7°
